Regional Weather Roundup
Issued by NWS Midland/Odessa, TX

Skip options and go directly to product.
Home | Oldest Version | Previous Version | Current Version | All | Text Only | Save Text | Print | Product List | Glossary Off

Skip product version selection by date and time.   

194
ASUS44 KMAF 022110
RWRMAF
MIDLAND AREA WEATHER ROUNDUP
NATIONAL WEATHER SERVICE MIDLAND TX
400 PM CDT WED SEP 02 2015

...IN SOUTHWEST TEXAS AND SOUTHEAST NEW MEXICO...

CITY           SKY/WX    TMP DP  RH WIND       PRES   REMARKS
ALPINE         FAIR      92  45  19 SE10      30.15F
ANDREWS        FAIR      91  53  27 S7        30.04F
ARTESIA        FAIR      97  46  17 SE17G23   30.01F
BIG SPRING     FAIR      90  53  28 SE12G17   30.03F
CARLSBAD       FAIR      98  42  14 SE14G23   30.00F
DRYDEN           N/A     95  61  32 S10G17    29.97
FORT STOCKTON  FAIR      93  53  25 SE12G17   30.01F
GUAD PASS      FAIR      89  47  23 E10       30.18F
HOBBS          SUNNY     90  50  25 S14G23    30.07F
MARFA          FAIR      91  45  19 E9G20     30.13F
MIDLAND AIRPK  FAIR      94  53  24 S15       30.02F
MIDLAND INTL   FAIR      93  55  27 SE16G29   30.02F
ODESSA         FAIR      92  54  27 S9G22     30.03F
PECOS          FAIR      95  51  22 E9G20     29.98F
PRESIDIO       NOT AVBL
SEMINOLE       FAIR      93  50  22 S10G17    30.06F
SNYDER         FAIR      93  56  28 SE12G17   30.01F
WINK           FAIR      95  51  22 S10G20    29.99F
$$
...OTHER STATIONS IN TEXAS...

CITY           SKY/WX    TMP DP  RH WIND       PRES   REMARKS
ABILENE        FAIR      94  59  31 SE8G18    29.99F
AMARILLO       FAIR      89  55  31 S18       30.03F
AUSTIN         PTSUNNY   92  65  40 E13       29.95F
BROWNSVILLE    LGT RAIN  81  76  84 N13       29.90F
CORPUS CHRISTI FAIR      89  71  55 E13       29.92F
DALLAS FTW     FAIR      93  61  34 CALM      29.97F
DEL RIO        FAIR      94  66  39 E10       29.92F
EL PASO        PTSUNNY   97  41  14 S9        30.01F
HOUSTON INT    LGT RAIN  80  74  81 NE5       29.98F
LUBBOCK        PTSUNNY   90  54  29 S17       30.04F
SAN ANGELO     FAIR      95  57  27 SW6       29.97F
SAN ANTONIO    FAIR      92  64  39 E7        29.96F
WACO           FAIR      91  64  40 E8        29.97F
WICHITA FALLS  NOT AVBL
$$
...OTHER LOCATIONS IN NEW MEXICO...

CITY           SKY/WX    TMP DP  RH WIND       PRES   REMARKS
ALAMAGORDO     FAIR      93  41  16 SW7       30.04F
ALBUQUERQUE    FAIR      88  45  22 S9        30.14F
CANNON AFB     FAIR      95  47  19 SW12G20   30.04F
CLOVIS         FAIR      93  52  24 S21G26    30.06F
HOLLOMAN AFB   FAIR      96  41  15 N7        30.01F
ROSWELL        FAIR      97  45  16 SE16G24   30.01F
RUIDOSO        FAIR      81  36  19 MISG      30.27F
SANTA FE       FAIR      85  42  22 S6        30.20F
TRUTH OR CONSE FAIR      88  45  22 NW17      30.09F
TUCUMCARI      FAIR      96  49  20 VRB7      29.99F
$$

USA.gov is the U.S. government's official web portal to all federal, state and local government web resources and services.